RTU MIREA 1 (RS51S)

Last updated on Mon Sep 21 2026 00:03:15 GMT+0000 (Coordinated Universal Time)

1 61785U 24199BC 26263.61403854 .00092342 00000+0 63552-3 0 9995 2 61785 97.2721 143.8198 0002249 260.7882 99.3128 15.74361615149411
UTC large
Height (km)
Speed (km/s)
/
Latitude / Longitude
Inclination (degrees)
Orbital Period (minutes)
Azimuth
Elevation
Range (km)
Doppler Factor

Next 0 passes for location: London (51.5072 / 0.1276)

No passes found over London.
RTU MIREA 1 (RS51S)